GEFSSGP_con_probscp_252.txt.gz
Probability
0 0 0 0 0 0 0 0 0 0 0 0 0 0 0 0 0 0 2 10 20 23 21 24 29 26 16 11 8 5 2 0 0 0 0 0 0 1 2 2 1 1 2 2 2 1 1 0 0
1 0 0 0 0 0 0 0 0 0 0 0 0 0 0 0 0 0 4 14 23 24 22 26 32 29 20 13 8 4 2 1 0 0 0 0 0 1 2 2 1 0 1 2 2 2 2 1 0
2 1 0 0 0 0 0 0 0 0 0 0 0 0 0 1 1 1 8 21 28 26 24 29 33 31 23 15 9 4 2 1 0 0 0 0 0 0 1 1 0 0 0 1 1 2 2 2 1
2 1 0 0 0 0 0 0 0 0 0 0 0 0 2 4 4 3 10 22 30 29 27 29 31 29 24 18 11 6 3 2 1 1 1 0 0 0 1 1 0 0 0 0 0 1 1 1 1
1 0 0 0 0 0 0 0 0 0 0 0 0 1 5 7 6 6 11 21 30 32 30 28 30 28 24 19 14 10 7 5 3 2 2 1 0 1 2 2 1 0 0 0 0 0 0 0 0
1 0 0 0 0 0 0 0 0 0 0 0 0 2 7 10 9 10 16 25 33 35 31 29 29 27 24 19 16 14 12 10 6 4 4 3 1 1 2 2 1 0 1 0 0 0 0 0 0
1 0 0 0 0 0 0 0 0 0 0 0 1 3 8 11 14 17 24 34 40 37 31 28 26 23 21 18 16 16 15 11 8 6 6 4 3 2 2 1 1 0 0 0 0 0 0 0 0
0 0 0 0 0 0 0 0 0 0 0 1 3 7 12 16 20 25 32 40 43 39 31 26 21 17 15 14 14 14 13 10 7 7 5 4 3 3 1 1 1 0 0 0 0 0 0 0 0
0 0 0 0 0 0 0 0 0 0 1 2 6 13 19 21 25 30 37 41 44 40 33 25 19 16 13 11 11 12 11 8 6 5 4 3 3 2 1 0 0 0 0 0 0 0 0 0 0
0 0 0 0 0 0 0 0 0 0 1 3 9 17 22 23 26 31 37 40 42 42 37 29 22 20 17 13 12 12 10 8 6 4 3 3 3 3 1 0 0 0 0 0 0 0 0 0 0
0 0 0 0 0 0 0 0 0 0 1 2 7 15 20 21 22 26 32 37 40 41 39 32 28 26 22 18 15 13 11 9 7 5 4 4 4 3 2 1 0 0 0 0 0 0 0 0 0
0 0 0 0 0 0 0 0 0 0 0 1 5 13 18 18 18 22 29 34 36 36 35 33 31 29 25 21 17 15 12 11 9 7 5 5 5 4 2 1 0 0 0 0 0 0 0 0 0
0 0 0 0 0 0 0 0 0 0 0 0 4 11 15 15 15 20 27 31 32 32 32 33 33 30 26 22 18 15 14 12 11 8 6 6 5 4 1 0 0 0 0 0 0 0 0 0 0
0 0 0 0 0 0 0 0 0 0 0 0 2 5 9 11 13 17 23 27 28 28 29 31 32 31 28 25 20 16 14 12 11 9 7 6 4 2 1 0 0 0 0 0 0 0 0 0 0
0 0 0 0 0 0 0 0 0 0 0 0 0 1 3 7 10 13 17 20 22 24 25 27 29 30 30 28 23 19 15 12 11 10 8 6 5 4 3 1 0 0 0 0 0 0 0 0 0
0 0 0 0 0 0 0 0 0 0 0 0 0 0 1 4 7 11 13 15 18 21 22 23 25 27 28 27 24 20 17 13 11 10 10 8 7 7 5 3 1 0 0 0 0 0 0 0 0
0 0 0 0 0 0 0 0 0 0 0 0 0 0 1 3 5 7 10 13 16 19 20 20 21 22 22 22 21 21 18 15 12 12 12 11 9 7 6 5 2 1 1 1 0 0 0 0 0
0 0 0 0 0 0 0 0 0 0 0 0 0 1 2 2 3 4 6 10 13 16 17 17 18 18 18 18 19 19 18 15 13 12 12 11 10 8 7 6 4 2 2 2 1 0 0 0 0
0 0 0 0 0 0 0 0 0 0 0 0 0 1 2 3 3 3 4 6 9 12 14 14 15 14 14 15 16 15 14 12 10 9 8 8 8 7 8 7 5 4 3 3 2 0 0 0 0
0 0 0 0 0 0 0 0 0 0 0 0 0 0 1 2 3 3 3 4 6 9 10 11 12 12 11 11 11 10 8 7 6 5 4 3 3 4 5 6 6 5 4 3 1 0 1 1 1
0 0 0 0 0 0 0 0 0 0 0 0 0 0 0 1 2 2 3 3 4 6 8 9 10 11 9 8 7 7 5 4 4 3 1 0 1 1 2 3 5 4 3 2 1 1 2 2 2
0 0 0 0 0 0 0 0 0 0 0 0 0 0 0 0 1 1 1 2 3 5 7 8 9 9 8 7 6 6 5 4 3 2 1 0 0 1 1 1 2 2 1 1 0 1 2 2 2
0 0 0 0 0 0 0 0 0 0 0 0 0 0 0 0 0 0 0 1 3 5 7 8 8 7 7 6 6 5 4 3 3 2 0 0 0 0 0 0 1 1 0 0 0 1 1 1 1
0 0 0 0 0 0 0 0 0 0 0 0 0 0 0 0 0 0 0 0 2 5 7 7 7 6 5 5 5 5 4 3 3 2 1 0 0 0 0 0 0 0 1 1 1 2 2 1 0
0 0 0 0 0 0 0 0 0 0 0 0 0 0 0 0 0 0 0 0 1 3 4 5 6 6 5 4 5 5 4 3 3 2 1 1 0 0 0 0 0 1 2 3 3 3 2 1 0
0 0 0 0 0 0 0 0 0 0 0 0 0 0 0 0 0 0 0 0 0 1 2 3 5 6 5 4 4 4 3 3 2 2 2 1 0 0 0 0 1 3 5 5 4 4 3 1 0
0 0 0 0 0 0 0 0 0 0 0 0 0 0 0 0 0 0 0 0 0 0 0 1 4 5 5 4 3 3 2 2 2 1 1 1 1 1 0 1 2 4 5 6 6 5 4 1 0
0 0 0 0 0 0 0 0 0 0 0 0 0 0 0 0 0 0 0 0 0 0 0 1 3 4 5 4 3 2 1 1 1 1 0 0 1 1 1 1 2 3 4 5 6 6 5 3 1
0 0 0 0 0 0 0 0 0 0 0 0 0 0 0 0 0 0 0 0 0 0 0 1 2 3 4 3 1 1 0 0 0 0 0 0 1 1 2 2 2 3 3 4 4 5 5 3 1
0 0 0 0 0 0 0 0 0 0 0 0 0 0 0 0 0 0 0 0 0 0 0 0 1 3 3 2 1 0 0 0 0 0 0 0 0 0 1 2 3 3 3 3 4 4 4 3 1

GEFSSGP_con_probscp_258.txt.gz
Probability
0 0 0 0 0 0 0 0 0 0 0 0 0 0 0 0 0 2 4 5 7 9 11 14 15 13 13 12 10 8 6 4 3 3 3 3 3 3 3 3 3 3 3 2 1 0 0 0 0
0 0 0 0 0 0 0 0 0 0 0 0 0 0 0 0 1 5 8 9 11 14 14 16 17 16 15 14 12 9 6 4 3 3 3 3 3 3 3 3 3 3 3 1 0 0 0 0 0
0 0 0 0 0 0 0 0 0 0 0 0 0 0 0 0 2 7 11 14 18 20 19 20 21 21 19 16 13 9 6 5 4 3 3 3 3 3 3 3 3 3 2 1 0 0 0 0 0
0 0 0 0 0 0 0 0 0 0 0 0 0 0 1 1 5 12 16 21 25 26 24 26 27 27 23 18 13 10 7 6 6 4 3 3 3 3 3 3 3 3 2 1 0 0 0 0 0
0 0 0 0 0 0 0 0 0 0 0 0 0 1 3 6 14 21 24 27 30 30 29 31 32 32 27 21 17 14 11 9 8 6 4 3 3 3 3 3 3 3 2 1 0 0 0 0 0
0 0 0 0 0 0 0 0 0 0 0 0 1 2 5 12 22 27 28 30 30 30 30 30 31 30 27 23 19 16 14 11 10 7 4 3 3 3 3 3 4 3 2 2 1 0 0 0 0
0 0 0 0 0 0 0 0 0 0 0 0 1 4 8 13 22 27 29 31 30 30 30 29 27 24 22 20 18 15 13 13 11 8 5 4 4 4 4 4 5 5 3 2 1 0 0 0 0
0 0 0 0 0 0 0 0 0 1 1 2 2 5 8 13 22 30 33 33 32 31 31 30 25 19 16 15 14 13 13 13 12 9 5 4 4 5 5 5 5 4 2 1 1 0 0 0 0
0 0 0 0 0 0 0 0 0 1 3 6 7 8 10 18 29 35 37 35 32 31 32 30 25 19 15 14 14 14 13 13 11 8 5 3 4 4 4 3 3 3 1 0 1 0 0 0 0
0 0 0 0 0 0 0 0 0 1 4 10 14 14 16 24 33 38 38 35 32 31 31 28 24 19 17 16 15 14 13 12 10 7 4 3 4 3 3 2 1 1 1 0 0 0 0 0 0
0 0 0 0 0 0 0 0 0 0 2 8 15 18 21 26 32 36 36 34 31 29 28 24 20 17 16 16 16 14 12 10 8 6 3 3 4 4 3 2 1 1 0 0 0 0 0 0 0
0 0 0 0 0 0 0 0 0 0 0 5 13 18 21 25 30 34 34 33 31 28 25 22 17 15 15 15 15 14 11 8 6 4 2 1 3 3 3 3 2 1 0 0 0 0 0 0 0
0 0 0 0 0 0 0 0 0 0 1 6 13 18 19 24 28 30 31 32 31 27 24 21 18 16 16 16 16 14 11 7 5 3 1 0 1 3 3 3 2 1 0 0 0 0 0 0 0
0 0 0 0 0 0 0 0 0 0 2 8 13 14 15 17 21 24 28 30 28 24 22 21 19 17 17 16 16 14 11 7 5 3 1 0 1 3 4 3 2 1 0 0 0 0 0 0 0
0 0 0 0 0 0 0 0 0 0 2 7 10 11 10 10 12 17 23 25 23 20 20 19 19 18 16 14 13 13 12 8 5 3 1 0 1 3 4 3 1 0 0 0 0 0 0 0 0
0 0 0 0 0 0 0 0 0 0 1 2 5 7 8 6 6 10 16 18 17 16 17 18 19 18 15 12 11 12 11 9 5 2 1 0 1 2 3 2 1 0 0 0 0 0 0 0 0
0 0 0 0 0 0 0 0 0 0 0 0 2 4 6 4 3 6 10 12 13 14 15 15 16 17 15 13 12 11 9 7 3 1 0 0 1 1 1 1 0 0 0 0 0 0 0 0 0
0 0 0 0 0 0 0 0 0 0 0 0 0 2 3 2 1 3 7 11 12 12 13 13 13 14 15 15 14 12 9 5 2 1 0 0 0 0 0 0 0 0 0 0 0 0 0 0 0
0 0 0 0 0 0 0 0 0 0 0 0 0 0 1 0 0 2 6 10 12 12 12 13 12 12 13 14 15 14 10 5 1 0 0 0 0 0 1 1 0 0 0 0 0 0 0 0 0
0 0 0 0 0 0 0 0 0 0 0 0 0 0 0 0 1 3 5 8 10 11 11 12 12 11 11 12 12 12 9 4 1 0 0 0 0 0 1 1 0 0 0 0 0 0 0 0 0
0 0 0 0 0 0 0 0 0 0 0 0 0 0 0 0 1 3 4 6 8 9 8 8 9 9 9 10 9 9 7 4 2 1 0 0 0 0 0 0 0 0 0 0 0 0 0 0 0
0 0 0 0 0 0 0 0 0 0 0 0 0 0 0 1 2 3 4 5 6 6 5 5 5 6 7 7 7 7 6 6 4 2 0 0 0 0 0 0 0 0 0 0 0 0 0 0 0
0 0 0 0 0 0 0 0 0 0 0 0 0 0 0 1 2 3 4 6 6 6 4 3 3 3 4 5 5 5 6 6 5 2 0 0 0 0 0 0 0 0 0 1 1 1 1 1 1
0 0 0 0 0 0 0 0 0 0 0 0 0 0 0 0 1 2 3 5 6 5 4 3 3 2 3 5 4 4 4 4 4 2 0 0 0 0 0 0 0 0 0 1 2 2 2 2 2
0 0 0 0 0 0 0 0 0 0 0 0 0 0 0 0 1 1 1 3 5 4 3 3 2 2 3 4 4 3 1 1 2 2 1 0 0 0 0 0 0 0 0 0 1 1 1 3 3
0 0 0 0 0 0 0 0 0 0 0 0 0 0 0 0 0 0 0 1 4 4 3 3 2 2 2 3 3 1 0 0 0 1 0 0 0 0 0 0 0 0 0 0 0 0 1 2 3
0 0 0 0 0 0 0 0 0 0 0 0 0 0 0 0 0 0 0 1 3 3 3 3 2 1 2 3 3 1 0 0 0 0 0 0 0 0 0 0 0 0 0 0 0 0 0 1 2
0 0 0 0 0 0 0 0 0 0 0 0 0 0 0 0 0 0 0 1 2 3 2 1 1 0 1 2 3 2 1 0 0 0 0 0 0 0 0 0 0 0 0 1 0 0 0 0 1
0 0 0 0 0 0 0 0 0 0 0 0 0 0 0 0 0 0 0 0 1 1 1 1 0 0 0 1 2 2 1 0 0 0 0 0 0 0 0 0 0 0 0 0 0 0 0 0 0
0 0 0 0 0 0 0 0 0 0 0 0 0 0 0 0 0 0 0 0 0 0 1 0 0 0 0 0 1 2 1 0 0 0 0 0 0 0 0 0 0 0 0 0 0 0 0 0 0

GEFSSGP_con_probscp_264.txt.gz
Probability
0 0 0 0 0 0 0 0 0 0 0 0 0 0 0 0 0 0 0 4 9 11 11 12 14 14 14 12 11 9 6 4 3 1 0 0 1 2 2 2 3 3 1 0 0 0 0 0 0
0 0 0 0 0 0 0 0 0 0 0 0 0 0 0 0 0 0 1 5 11 14 13 13 15 18 18 16 13 11 8 6 5 2 0 1 2 3 3 3 3 3 2 1 0 0 0 0 0
0 0 0 0 0 0 0 0 0 0 0 0 0 0 0 0 0 1 4 11 18 19 17 16 18 19 20 18 16 15 13 10 8 4 1 2 3 3 3 3 3 3 3 2 1 0 0 0 0
0 0 0 0 0 0 0 0 0 0 0 0 0 0 0 1 3 5 11 20 26 25 21 20 19 19 19 18 18 18 16 14 11 6 3 3 3 3 3 3 3 3 3 3 1 0 0 0 0
0 0 0 0 0 0 0 0 0 0 0 0 0 0 2 5 9 12 19 28 33 30 25 22 21 20 19 19 19 18 18 17 13 9 5 3 3 3 3 3 3 3 3 3 2 1 0 0 0
1 0 0 0 0 0 0 0 0 0 0 0 0 2 6 11 16 19 24 30 34 32 27 24 23 22 20 19 18 18 18 17 15 13 8 4 2 2 3 3 3 3 3 3 2 1 0 0 0
2 1 0 0 0 0 0 0 0 0 0 0 1 4 10 17 21 24 28 32 34 34 30 26 23 22 21 19 17 18 18 17 16 15 11 6 2 1 2 3 3 4 4 3 2 0 0 0 0
2 1 0 0 0 0 0 0 0 0 0 0 1 4 12 22 28 31 33 34 34 35 33 28 22 20 19 18 17 18 18 17 16 14 10 7 3 1 2 3 4 5 6 5 3 1 0 0 0
2 1 0 0 0 0 0 0 0 0 0 0 0 4 14 26 34 37 36 34 34 35 32 27 21 18 17 16 16 17 17 16 14 11 9 6 4 3 3 3 5 6 6 5 3 1 0 0 0
1 0 0 0 0 0 0 0 0 0 0 0 1 7 17 28 35 36 32 31 32 33 30 24 19 17 15 14 14 15 15 13 11 9 7 5 4 3 2 3 3 4 4 3 1 1 0 0 0
0 0 0 0 0 0 0 0 0 0 0 0 3 12 22 29 33 30 26 26 28 30 28 23 19 16 15 14 14 14 14 12 9 7 7 6 5 2 1 1 1 2 1 1 0 0 0 0 0
0 0 0 0 0 0 0 0 0 0 0 0 5 15 24 29 29 27 24 23 25 28 27 23 18 14 14 15 15 15 14 11 9 7 6 6 6 3 1 0 1 0 0 0 1 1 1 0 0
0 0 0 0 0 0 0 0 0 0 0 2 8 17 23 26 28 27 24 21 22 24 25 23 17 12 12 13 14 14 13 12 10 8 7 7 7 5 2 0 0 0 0 0 1 1 1 0 0
0 0 0 0 0 0 0 0 0 0 1 4 10 16 21 24 26 27 24 21 20 21 21 20 16 11 10 11 11 12 13 13 12 10 9 8 9 7 3 1 0 0 0 0 0 0 0 0 0
0 0 0 0 0 0 0 0 0 0 2 5 10 14 18 20 22 25 25 22 21 20 19 17 14 11 9 9 10 12 13 13 12 10 9 8 8 8 5 2 0 0 0 0 0 0 0 0 0
0 0 0 0 0 0 0 0 0 1 3 5 8 11 14 15 16 20 23 23 22 21 19 16 13 10 9 9 10 11 12 13 12 11 8 7 7 6 4 1 0 0 0 0 0 0 0 0 0
0 0 0 0 0 0 0 0 0 1 3 4 6 8 11 12 13 15 19 20 20 20 19 17 14 11 9 8 8 9 10 11 12 11 8 7 6 6 3 1 0 0 0 0 0 0 0 0 0
0 0 0 0 0 0 0 0 0 1 2 4 5 7 9 11 11 12 14 16 16 18 17 16 15 13 9 7 7 8 8 9 10 9 7 6 6 5 4 2 1 1 1 0 0 0 0 0 0
0 0 0 0 0 0 0 0 0 0 2 3 5 6 7 8 8 10 12 13 13 14 14 15 15 13 9 8 8 8 8 7 7 7 6 5 5 4 3 3 2 2 1 0 0 0 0 0 0
0 0 0 0 0 0 0 0 0 1 2 3 4 4 4 4 6 8 11 12 11 10 11 12 12 11 9 8 8 8 8 7 6 6 5 4 4 3 3 3 3 1 1 0 0 0 0 0 0
0 0 0 0 0 0 0 0 0 1 2 3 3 3 3 3 3 6 9 9 8 7 8 9 9 8 8 9 8 7 7 7 6 5 5 3 3 3 3 3 3 1 1 0 0 0 0 0 0
0 0 0 0 0 0 0 0 0 1 1 2 2 2 2 2 1 3 5 5 5 6 7 7 6 5 5 7 8 7 6 6 5 4 3 1 1 2 2 2 2 2 1 0 0 0 0 0 0
0 0 0 0 0 0 0 0 0 0 0 1 1 1 1 1 0 1 3 3 4 5 6 5 3 1 2 5 7 7 6 4 2 1 1 0 0 1 1 1 1 1 1 0 0 0 0 0 0
0 0 0 0 0 0 0 0 0 0 0 0 0 0 0 0 0 1 2 3 3 4 5 4 2 0 1 3 6 6 5 2 0 0 0 0 0 0 0 0 0 0 0 0 0 0 0 0 0
0 0 0 0 0 0 0 0 0 0 0 0 0 0 0 0 0 1 2 3 3 4 4 4 2 1 0 2 4 5 3 1 0 0 0 0 0 0 0 0 0 0 0 0 0 0 0 0 0
0 0 0 0 0 0 0 0 0 0 0 0 0 0 0 0 0 0 1 2 3 3 4 3 3 2 1 0 2 2 2 0 0 0 0 0 0 0 0 0 0 0 0 0 0 0 0 0 0
0 0 0 0 0 0 0 0 0 0 0 0 0 0 0 0 0 0 0 1 2 3 3 3 3 3 1 0 0 1 2 1 0 0 0 0 0 0 0 0 0 0 0 0 0 0 0 0 0
0 0 0 0 0 0 0 0 0 0 0 0 0 0 0 0 0 0 0 0 1 3 3 3 3 3 2 0 0 1 2 2 1 0 0 0 0 0 0 0 0 0 0 0 0 0 0 0 0
0 0 0 0 0 0 0 0 0 0 0 0 0 0 0 0 0 0 0 0 1 2 3 3 3 2 1 0 0 0 1 1 1 0 0 0 0 0 0 0 0 0 0 0 0 0 0 0 0
0 0 0 0 0 0 0 0 0 0 0 0 0 0 0 0 0 0 0 0 1 2 3 3 3 1 0 0 0 0 0 1 0 0 0 0 0 0 0 0 0 0 0 0 0 0 0 0 0

GEFSSGP_con_probscp_270.txt.gz
Probability
0 0 0 0 0 0 0 0 0 0 0 0 0 0 0 0 1 0 0 2 8 14 15 15 17 18 18 17 15 11 6 2 1 0 0 0 0 0 1 1 0 0 0 0 0 0 0 0 0
0 0 0 0 0 0 0 0 0 0 0 0 0 0 0 0 1 0 0 3 9 15 17 17 19 19 19 18 16 12 8 4 2 1 0 0 0 1 2 2 1 1 0 0 0 0 0 0 0
0 0 0 0 0 0 0 0 0 0 0 0 0 0 0 0 1 1 2 6 12 17 20 21 23 22 20 18 17 15 11 7 4 2 0 0 0 1 2 3 3 2 1 1 1 0 0 0 0
1 0 0 0 0 0 0 0 0 0 0 0 0 1 2 2 2 3 6 9 13 18 21 24 26 25 22 19 18 17 13 9 6 4 2 0 0 0 1 2 3 3 3 2 2 1 0 0 0
2 1 0 0 0 0 0 0 0 0 0 0 1 3 5 6 8 10 12 14 15 18 20 23 25 24 22 20 18 17 14 10 8 6 3 1 0 0 0 1 3 3 3 3 3 2 1 0 0
2 1 0 0 0 0 0 0 0 0 0 0 1 3 6 10 14 17 20 20 19 20 20 21 22 21 20 19 19 18 15 12 9 7 4 2 1 0 0 1 2 3 4 3 3 2 1 0 0
3 2 0 0 0 0 0 0 0 0 0 0 1 3 6 11 16 21 25 25 23 22 21 21 21 19 18 19 19 18 15 13 11 9 7 4 3 2 2 2 3 4 5 4 3 2 1 0 0
3 2 0 0 0 0 0 0 0 0 0 0 1 3 7 12 18 24 29 29 27 26 24 23 20 18 17 18 18 15 12 11 11 10 9 7 6 5 5 4 4 5 5 4 3 1 0 0 0
3 2 1 0 0 0 0 0 0 0 0 1 3 6 10 14 20 28 32 32 30 28 26 25 21 18 17 17 16 13 11 10 10 9 9 10 9 7 5 3 4 5 4 3 3 1 0 0 0
2 2 1 0 0 0 0 0 0 0 1 3 7 11 14 16 21 26 30 32 31 28 28 26 23 20 18 18 18 17 13 11 10 8 9 11 11 8 5 3 4 4 4 3 3 2 0 0 0
1 1 0 0 0 0 0 0 0 0 1 2 7 12 15 15 17 21 25 28 29 29 29 27 24 22 21 20 20 20 17 14 12 10 10 11 11 10 8 6 6 5 4 4 3 2 0 0 0
0 0 0 0 0 0 0 0 0 0 0 1 5 11 13 13 14 17 21 24 26 27 26 25 24 23 21 19 19 19 18 16 14 12 10 11 12 11 10 10 9 8 6 4 3 2 1 0 0
0 0 0 0 0 0 0 0 0 0 0 1 5 10 11 12 13 16 21 24 24 24 23 21 21 20 18 17 18 18 17 16 14 11 11 12 12 12 12 11 11 10 7 4 2 2 1 0 0
0 0 0 0 0 0 0 0 0 0 0 2 6 9 10 13 15 18 20 22 23 22 21 20 18 16 15 15 16 17 16 15 12 9 10 12 12 12 12 12 11 10 8 4 1 1 1 1 1
0 0 0 0 0 0 0 0 0 0 1 4 7 9 11 16 19 18 18 19 20 19 19 18 16 13 11 12 14 14 14 14 12 10 10 10 11 11 11 11 10 10 8 5 2 0 0 0 0
0 0 0 0 0 0 0 0 0 0 1 5 9 10 12 16 19 17 16 17 18 19 18 17 15 11 9 10 12 12 12 13 13 11 10 10 10 10 10 10 10 10 9 7 4 1 0 0 0
0 0 0 0 0 0 0 0 0 0 2 5 8 9 10 12 14 14 15 16 18 20 20 19 16 11 9 8 9 10 10 11 12 12 10 10 10 10 10 10 10 10 10 9 6 3 1 1 1
0 0 0 0 0 0 0 0 0 1 3 5 5 6 6 7 8 10 13 15 17 20 21 19 15 11 8 7 8 8 8 9 10 11 9 9 9 10 10 10 10 11 11 9 6 4 3 3 3
0 0 0 0 0 0 0 0 0 1 2 3 3 4 4 4 5 8 9 11 15 19 19 17 13 10 8 7 8 9 9 9 9 9 8 8 9 10 10 10 11 11 10 9 6 5 5 5 4
0 0 0 0 0 0 0 0 0 0 1 1 1 3 3 4 6 7 8 10 13 16 17 15 13 10 8 7 7 8 9 9 8 8 7 6 7 8 9 10 10 10 9 8 6 5 5 5 4
0 0 0 0 0 0 0 0 0 0 0 0 1 2 4 5 6 7 9 10 11 12 14 14 12 10 9 7 7 7 9 10 9 9 7 5 4 5 6 7 8 8 8 7 6 5 5 5 5
0 0 0 0 0 0 0 0 0 0 0 0 1 2 4 5 6 8 10 11 11 11 12 11 11 10 8 6 5 6 8 10 11 10 8 5 3 3 4 5 6 6 6 5 4 4 4 4 5
0 0 0 0 0 0 0 0 0 0 0 1 1 1 2 4 5 8 10 10 10 11 11 10 9 9 7 5 4 5 6 9 10 9 8 6 4 3 3 3 4 4 4 4 3 3 3 3 4
0 0 0 0 0 0 0 0 0 0 0 1 1 1 1 2 3 5 7 8 9 10 10 9 8 7 5 4 3 3 5 6 7 7 7 6 5 4 4 3 3 3 3 3 3 3 3 3 3
0 0 0 0 0 0 0 0 0 0 0 1 1 0 0 1 1 2 3 5 7 9 9 8 7 6 4 3 2 3 5 5 6 6 6 7 7 6 5 4 3 3 4 3 3 3 3 3 3
0 0 0 0 0 0 0 0 0 0 0 0 0 0 0 0 0 0 0 2 4 6 7 7 5 4 3 2 1 2 4 4 6 6 6 7 8 7 6 5 5 5 5 4 3 3 3 2 1
0 0 0 0 0 0 0 0 0 0 0 0 0 0 0 0 0 0 0 1 2 4 4 4 4 3 2 1 1 1 2 3 5 5 5 5 6 6 5 5 5 5 5 4 4 3 2 2 1
0 0 0 0 0 0 0 0 0 0 0 0 0 0 0 0 0 0 0 0 1 2 3 4 3 1 1 1 1 0 0 2 3 4 3 3 3 3 4 3 2 2 3 3 3 3 3 2 2
0 0 0 0 0 0 0 0 0 0 0 0 0 0 0 0 0 0 0 0 0 1 3 3 1 0 0 1 2 1 1 2 3 3 2 1 1 1 1 1 0 0 1 1 1 2 2 2 2
0 0 0 0 0 0 0 0 0 0 0 0 0 0 0 0 0 0 0 0 0 1 1 1 0 0 0 1 2 2 2 3 3 2 1 0 0 0 0 0 0 0 0 0 0 1 1 1 1